period_start,C,m1,H,J0,J1,J2,J3,J4,J5,JA,JB,JC,JD,JJ,JK,JN,#
2014-03-02 00:00:43,0.38,0.86,0.00,19.61,25.62,28.63,6.14,31.08,1027.85,2046.00,3175.02,3080.34,3343.56,349.03,330.52,2.42,0000 0000 0000 0000 000000
2014-03-02 00:01:44,0.34,0.86,0.00,19.60,25.60,28.59,6.26,31.38,1027.87,2046.01,3174.31,3079.68,3342.89,350.57,331.89,2.43,0000 0000 0000 0000 000000
2014-03-02 00:02:44,0.36,0.87,0.00,19.60,25.60,28.63,6.14,31.08,1027.86,2046.02,3173.55,3079.18,3342.29,349.20,330.60,2.43,0000 0000 0000 0000 000000
2014-03-02 00:03:44,0.32,0.87,0.00,19.61,25.60,28.68,6.24,31.38,1027.85,2046.03,3172.75,3078.53,3341.61,349.89,331.52,2.44,0000 0000 0000 0000 000000
2014-03-02 00:04:44,0.34,0.87,0.00,19.60,25.60,28.66,6.28,31.17,1027.85,2046.05,3171.84,3077.89,3340.88,350.29,331.03,2.44,0000 0000 0000 0000 000000
2014-03-02 00:05:45,0.40,0.87,0.00,19.60,25.60,28.66,6.21,31.13,1027.86,2046.03,3171.01,3077.31,3340.28,349.91,331.03,2.45,0000 0000 0000 0000 000000
2014-03-02 00:06:45,0.35,0.87,0.00,19.60,25.60,28.63,6.17,31.04,1027.85,2046.03,3170.07,3076.64,3339.58,349.71,331.09,2.46,0000 0000 0000 0000 000000
2014-03-02 00:07:45,0.36,0.88,0.00,19.61,25.60,28.65,6.16,31.13,1027.85,2046.04,3169.24,3076.02,3338.88,349.86,331.20,2.46,0000 0000 0000 0000 000000
2014-03-02 00:08:45,0.39,0.88,0.00,19.62,25.60,28.63,6.28,31.13,1027.85,2046.02,3168.39,3075.39,3338.24,350.50,331.81,2.47,0000 0000 0000 0000 000000
2014-03-02 00:09:46,0.33,0.88,0.00,19.61,25.59,28.61,6.17,31.17,1027.85,2046.00,3167.53,3074.75,3337.53,350.24,331.57,2.47,0000 0000 0000 0000 000000
2014-03-02 00:10:46,0.35,0.88,0.00,19.61,25.59,28.65,6.24,30.92,1027.85,2046.01,3166.69,3074.20,3336.91,350.81,332.11,2.48,0000 0000 0000 0000 000000
2014-03-02 00:11:46,0.36,0.88,0.00,19.62,25.59,28.60,6.25,31.25,1027.85,2046.00,3165.92,3073.51,3336.20,350.12,331.48,2.49,0000 0000 0000 0000 000000
2014-03-02 00:12:46,0.34,0.89,0.00,19.62,25.58,28.61,6.33,31.25,1027.85,2046.01,3165.14,3072.91,3335.47,351.00,332.28,2.49,0000 0000 0000 0000 000000
2014-03-02 00:13:47,0.35,0.89,0.00,19.62,25.57,28.62,6.08,31.04,1027.85,2046.01,3164.34,3072.35,3334.86,349.65,330.99,2.50,0000 0000 0000 0000 000000
2014-03-02 00:14:47,0.33,0.89,0.00,19.62,25.57,28.65,6.21,30.92,1027.85,2046.00,3163.52,3071.73,3334.24,349.89,331.22,2.50,0000 0000 0000 0000 000000
2014-03-02 00:15:47,0.34,0.89,0.00,19.62,25.57,28.65,6.28,31.00,1027.85,2046.00,3162.70,3071.23,3333.54,350.70,331.99,2.51,0000 0000 0000 0000 000000
2014-03-02 00:16:47,0.33,0.89,0.00,19.62,25.57,28.60,6.02,31.04,1027.86,2046.02,3161.83,3070.61,3332.83,349.69,331.03,2.51,0000 0000 0000 0000 000000
2014-03-02 00:17:48,0.36,0.90,0.00,19.63,25.57,28.62,6.28,31.04,1027.85,2046.03,3161.05,3070.11,3332.24,350.25,331.55,2.52,0000 0000 0000 0000 000000
2014-03-02 00:18:48,0.38,0.90,0.00,19.64,25.57,28.64,6.36,30.92,1027.85,2046.07,3160.30,3069.45,3331.58,349.75,330.82,2.53,0000 0000 0000 0000 000000
2014-03-02 00:19:48,0.33,0.90,0.00,19.65,25.57,28.61,6.35,30.71,1027.85,2046.05,3159.54,3068.96,3330.99,350.69,331.95,2.53,0000 0000 0000 0000 000000
2014-03-02 00:20:49,0.31,0.90,0.00,19.66,25.57,28.59,6.28,31.04,1027.85,2046.04,3158.80,3068.35,3330.33,350.37,331.63,2.54,0000 0000 0000 0000 000000
2014-03-02 00:21:49,0.32,0.90,0.00,19.66,25.57,28.64,6.09,30.79,1027.85,2046.06,3158.16,3067.76,3329.61,349.16,330.49,2.54,0000 0000 0000 0000 000000
2014-03-02 00:22:49,0.36,0.91,0.00,19.66,25.57,28.62,6.12,30.88,1027.85,2046.09,3157.35,3067.21,3328.99,349.48,330.86,2.55,0000 0000 0000 0000 000000
2014-03-02 00:23:49,0.37,0.91,0.00,19.65,25.57,28.62,6.44,30.92,1027.85,2046.09,3156.47,3066.55,3328.36,350.70,331.94,2.56,0000 0000 0000 0000 000000
2014-03-02 00:24:50,0.33,0.91,0.00,19.65,25.57,28.60,6.21,31.00,1027.85,2046.11,3155.60,3066.00,3327.69,350.06,331.35,2.56,0000 0000 0000 0000 000000
2014-03-02 00:25:50,0.39,0.91,0.00,19.65,25.57,28.60,6.14,31.00,1027.85,2046.09,3154.69,3065.36,3327.17,350.44,331.71,2.57,0000 0000 0000 0000 000000
2014-03-02 00:26:50,0.33,0.92,0.00,19.64,25.57,28.63,6.24,31.00,1027.85,2046.06,3153.82,3064.70,3326.50,350.01,331.31,2.57,0000 0000 0000 0000 000000
2014-03-02 00:27:51,0.35,0.92,0.00,19.66,25.57,28.65,6.03,30.83,1027.85,2046.06,3153.03,3064.22,3325.89,349.86,331.15,2.58,0000 0000 0000 0000 000000
2014-03-02 00:28:51,0.34,0.92,0.00,19.66,25.57,28.64,6.13,30.83,1027.85,2046.08,3152.30,3063.56,3325.22,349.45,330.77,2.59,0000 0000 0000 0000 000000
2014-03-02 00:29:51,0.35,0.92,0.00,19.65,25.57,28.64,6.27,31.13,1027.85,2046.08,3151.53,3062.94,3324.47,350.29,331.56,2.59,0000 0000 0000 0000 000000
2014-03-02 00:30:51,0.36,0.92,0.00,19.65,25.56,28.63,6.27,30.92,1027.85,2046.08,3150.75,3062.32,3323.76,350.50,331.77,2.60,0000 0000 0000 0000 000000
2014-03-02 00:31:51,0.34,0.93,0.00,19.67,25.56,28.61,6.19,30.88,1027.85,2046.09,3150.00,3061.69,3323.15,350.06,331.34,2.60,0000 0000 0000 0000 000000
2014-03-02 00:32:52,0.37,0.93,0.00,19.67,25.56,28.60,6.24,30.96,1027.85,2046.11,3149.21,3061.18,3322.45,350.23,331.49,2.61,0000 0000 0000 0000 000000
2014-03-02 00:33:52,0.31,0.93,0.00,19.68,25.55,28.60,6.04,30.92,1027.85,2046.06,3148.38,3060.52,3321.84,349.69,330.97,2.61,0000 0000 0000 0000 000000
2014-03-02 00:34:52,0.33,0.93,0.00,19.69,25.55,28.61,6.19,30.83,1027.85,2046.11,3147.55,3060.02,3321.20,350.26,331.49,2.62,0000 0000 0000 0000 000000
2014-03-02 00:35:53,0.39,0.93,0.00,19.69,25.55,28.62,6.24,30.92,1027.85,2046.12,3146.70,3059.39,3320.50,350.95,332.15,2.63,0000 0000 0000 0000 000000
2014-03-02 00:36:53,0.34,0.94,0.00,19.69,25.55,28.63,6.11,31.00,1027.85,2046.11,3145.81,3058.70,3319.79,350.29,331.77,2.63,0000 0000 0000 0000 000000
2014-03-02 00:37:53,0.39,0.94,0.00,19.69,25.55,28.64,6.17,31.04,1027.85,2046.06,3144.89,3058.11,3319.22,349.81,331.06,2.64,0000 0000 0000 0000 000000
2014-03-02 00:38:54,0.33,0.94,0.00,19.69,25.55,28.64,6.17,30.67,1027.85,2046.11,3144.17,3057.46,3318.55,350.62,331.83,2.64,0000 0000 0000 0000 000000
2014-03-02 00:39:54,0.37,0.94,0.00,19.69,25.55,28.61,6.16,31.17,1027.84,2046.20,3143.31,3056.92,3317.98,349.33,330.24,2.65,0000 0000 0000 0000 000000
2014-03-02 00:40:54,0.45,0.95,0.00,19.69,25.55,28.60,6.17,31.04,1027.85,2046.27,3142.43,3056.34,3317.30,350.73,331.93,2.66,0000 0000 0000 0000 000000
2014-03-02 00:41:54,0.39,0.95,0.00,19.71,25.55,28.59,6.12,31.00,1027.85,2046.25,3141.59,3055.72,3316.57,349.33,330.59,2.66,0000 0000 0000 0000 000000
2014-03-02 00:42:55,0.30,0.95,0.00,19.71,25.55,28.58,6.21,30.88,1027.85,2046.16,3140.78,3055.03,3315.78,349.34,330.59,2.67,0000 0000 0000 0000 000000
2014-03-02 00:43:55,0.36,0.95,0.00,19.72,25.55,28.59,6.16,31.00,1027.85,2046.13,3139.96,3054.36,3315.14,349.98,331.32,2.67,0000 0000 0000 0000 000000
2014-03-02 00:44:55,0.34,0.95,0.00,19.72,25.55,28.61,6.32,30.71,1027.85,2046.17,3139.16,3053.71,3314.43,349.80,331.02,2.68,0000 0000 0000 0000 000000
2014-03-02 00:45:55,0.38,0.96,0.00,19.74,25.55,28.60,6.15,30.88,1027.85,2046.16,3138.35,3053.20,3313.71,349.80,331.24,2.68,0000 0000 0000 0000 000000
2014-03-02 00:46:56,0.38,0.96,0.00,19.74,25.55,28.61,6.26,31.04,1027.85,2046.17,3137.55,3052.54,3313.13,350.23,331.55,2.69,0000 0000 0000 0000 000000
2014-03-02 00:47:56,0.30,0.96,0.00,19.74,25.55,28.60,6.25,30.83,1027.85,2046.13,3136.78,3051.96,3312.45,350.38,331.55,2.70,0000 0000 0000 0000 000000
2014-03-02 00:48:56,0.34,0.96,0.00,19.75,25.55,28.58,6.26,30.83,1027.85,2046.11,3135.94,3051.34,3311.72,349.00,330.23,2.70,0000 0000 0000 0000 000000
2014-03-02 00:49:56,0.33,0.96,0.00,19.75,25.55,28.61,5.98,31.04,1027.85,2046.10,3135.22,3050.64,3311.04,349.60,330.84,2.71,0000 0000 0000 0000 000000
2014-03-02 00:50:56,0.39,0.97,0.00,19.76,25.55,28.60,6.21,30.96,1027.84,2046.20,3134.48,3050.11,3310.36,349.88,331.01,2.71,0000 0000 0000 0000 000000
2014-03-02 00:51:57,0.38,0.97,0.00,19.77,25.55,28.61,6.28,31.08,1027.85,2046.16,3133.67,3049.45,3309.64,350.85,332.08,2.72,0000 0000 0000 0000 000000
2014-03-02 00:52:57,0.34,0.97,0.00,19.77,25.55,28.56,6.09,30.88,1027.85,2046.13,3132.82,3048.78,3308.97,349.70,330.87,2.73,0000 0000 0000 0000 000000
2014-03-02 00:53:57,0.36,0.97,0.00,19.77,25.55,28.59,6.11,30.75,1027.85,2046.09,3131.95,3048.24,3308.33,350.05,331.21,2.73,0000 0000 0000 0000 000000
2014-03-02 00:54:58,0.28,0.97,0.00,19.77,25.55,28.60,6.17,31.00,1027.85,2046.13,3131.19,3047.61,3307.62,349.86,331.03,2.74,0000 0000 0000 0000 000000
2014-03-02 00:55:58,0.38,0.98,0.00,19.77,25.55,28.61,6.23,31.04,1027.85,2046.11,3130.38,3047.00,3306.97,350.10,331.25,2.74,0000 0000 0000 0000 000000
2014-03-02 00:56:58,0.37,0.98,0.00,19.78,25.55,28.61,6.20,31.04,1027.85,2046.10,3129.56,3046.37,3306.30,349.92,331.38,2.75,0000 0000 0000 0000 000000
2014-03-02 00:57:59,0.32,0.98,0.00,19.77,25.55,28.61,6.21,30.92,1027.85,2046.08,3128.73,3045.77,3305.57,349.98,331.13,2.76,0000 0000 0000 0000 000000
2014-03-02 00:58:59,0.39,0.98,0.00,19.77,25.55,28.59,6.08,31.00,1027.85,2046.09,3127.92,3045.22,3304.93,349.67,330.67,2.76,0000 0000 0000 0000 000000
2014-03-02 00:59:59,0.33,0.98,0.00,19.79,25.56,28.58,6.23,31.13,1027.84,2046.07,3127.08,3044.53,3304.27,350.02,331.16,2.77,0000 0000 0000 0000 000000
2014-03-02 01:01:00,0.36,0.99,0.00,19.79,25.56,28.59,6.18,30.88,1027.83,2046.03,3126.31,3043.94,3303.54,350.36,331.46,2.77,0000 0000 0000 0000 000000
2014-03-02 01:02:00,0.34,0.99,0.00,19.81,25.56,28.57,6.19,30.96,1027.85,2046.02,3125.51,3043.33,3302.85,350.15,331.25,2.78,0000 0000 0000 0000 000000
2014-03-02 01:03:00,0.34,0.99,0.00,19.82,25.56,28.62,6.17,30.88,1027.85,2046.07,3124.70,3042.70,3302.23,349.58,330.43,2.78,0000 0000 0000 0000 000000
2014-03-02 01:04:00,0.40,0.99,0.00,19.84,25.57,28.61,6.22,31.04,1027.85,2046.11,3123.84,3042.15,3301.54,350.26,331.47,2.79,0000 0000 0000 0000 000000
2014-03-02 01:05:01,0.38,1.00,0.00,19.84,25.57,28.64,6.17,30.67,1027.85,2046.12,3123.07,3041.47,3300.96,350.38,331.43,2.80,0000 0000 0000 0000 000000
2014-03-02 01:06:01,0.36,1.00,0.00,19.84,25.57,28.61,6.19,31.13,1027.85,2046.07,3122.24,3040.90,3300.28,349.69,331.14,2.80,0000 0000 0000 0000 000000
2014-03-02 01:07:01,0.33,1.00,0.00,19.84,25.57,28.57,6.19,31.00,1027.85,2046.07,3121.41,3040.31,3299.56,349.87,330.95,2.81,0000 0000 0000 0000 000000
2014-03-02 01:08:02,0.34,1.00,0.00,19.84,25.57,28.57,6.23,31.21,1027.85,2046.07,3120.59,3039.68,3298.92,350.29,330.98,2.81,0000 0000 0000 0000 000000
2014-03-02 01:09:02,0.39,1.00,0.00,19.86,25.57,28.60,6.06,31.25,1027.85,2046.10,3119.76,3039.08,3298.26,349.07,330.35,2.82,0000 0000 0000 0000 000000
2014-03-02 01:10:02,0.37,1.01,0.00,19.87,25.57,28.59,6.18,31.21,1027.85,2046.09,3118.94,3038.41,3297.54,350.17,331.24,2.83,0000 0000 0000 0000 000000
2014-03-02 01:11:02,0.34,1.01,0.00,19.88,25.57,28.56,6.10,31.08,1027.85,2046.08,3118.09,3037.76,3296.86,348.95,330.04,2.83,0000 0000 0000 0000 000000
2014-03-02 01:12:03,0.42,1.01,0.00,19.89,25.57,28.56,6.17,31.25,1027.85,2046.06,3117.29,3037.19,3296.28,350.05,331.06,2.84,0000 0000 0000 0000 000000
2014-03-02 01:13:03,0.29,1.01,0.00,19.89,25.57,28.57,6.28,31.00,1027.85,2046.07,3116.49,3036.52,3295.60,349.67,330.89,2.84,0000 0000 0000 0000 000000
2014-03-02 01:14:03,0.37,1.01,0.00,19.89,25.57,28.59,6.15,30.75,1027.85,2046.08,3115.66,3035.98,3294.90,349.94,330.96,2.85,0000 0000 0000 0000 000000
2014-03-02 01:15:03,0.38,1.02,0.00,19.90,25.57,28.58,6.31,31.33,1027.85,2046.11,3114.80,3035.36,3294.25,350.81,331.77,2.85,0000 0000 0000 0000 000000
2014-03-02 01:16:04,0.37,1.02,0.00,19.92,25.57,28.58,6.08,31.04,1027.85,2046.10,3113.95,3034.66,3293.53,349.24,330.62,2.86,0000 0000 0000 0000 000000
2014-03-02 01:17:04,0.39,1.02,0.00,19.92,25.58,28.60,6.10,31.21,1027.85,2046.08,3113.13,3034.07,3292.76,350.02,330.76,2.87,0000 0000 0000 0000 000000
2014-03-02 01:18:04,0.37,1.02,0.00,19.92,25.58,28.59,6.12,31.00,1027.85,2046.09,3112.33,3033.42,3292.12,349.64,330.65,2.87,0000 0000 0000 0000 000000
2014-03-02 01:19:05,0.34,1.03,0.00,19.92,25.59,28.56,5.99,30.92,1027.85,2046.10,3111.56,3032.85,3291.44,349.73,330.73,2.88,0000 0000 0000 0000 000000
2014-03-02 01:20:05,0.35,1.03,0.00,19.94,25.59,28.55,6.09,30.96,1027.85,2046.10,3110.75,3032.27,3290.74,349.45,330.36,2.88,0000 0000 0000 0000 000000
2014-03-02 01:21:05,0.34,1.03,0.00,19.94,25.60,28.55,6.32,31.13,1027.85,2046.09,3109.91,3031.59,3290.08,351.09,331.65,2.89,0000 0000 0000 0000 000000
2014-03-02 01:22:05,0.41,1.03,0.00,19.96,25.60,28.56,6.17,30.83,1027.85,2046.05,3109.09,3030.99,3289.38,349.93,331.14,2.90,0000 0000 0000 0000 000000
2014-03-02 01:23:05,0.33,1.03,0.00,19.94,25.60,28.59,6.18,31.00,1027.84,2046.05,3108.24,3030.35,3288.67,350.06,331.15,2.90,0000 0000 0000 0000 000000
2014-03-02 01:24:06,0.34,1.04,0.00,19.94,25.60,28.59,6.29,31.04,1027.85,2046.06,3107.42,3029.66,3288.04,350.54,331.09,2.91,0000 0000 0000 0000 000000
2014-03-02 01:25:06,0.40,1.04,0.00,19.94,25.60,28.56,6.24,31.13,1027.85,2046.05,3106.58,3029.08,3287.36,351.01,331.99,2.91,0000 0000 0000 0000 000000
2014-03-02 01:26:06,0.37,1.04,0.00,19.94,25.60,28.54,6.16,31.29,1027.85,2046.06,3105.70,3028.42,3286.63,349.95,330.92,2.92,0000 0000 0000 0000 000000
2014-03-02 01:27:06,0.37,1.04,0.00,19.94,25.60,28.56,6.12,31.17,1027.85,2046.04,3104.83,3027.79,3285.96,349.65,330.63,2.93,0000 0000 0000 0000 000000
2014-03-02 01:28:06,0.38,1.04,0.00,19.96,25.60,28.53,6.25,30.71,1027.85,2046.01,3103.98,3027.17,3285.28,350.77,331.53,2.93,0000 0000 0000 0000 000000
2014-03-02 01:29:06,0.32,1.05,0.00,19.97,25.60,28.57,6.17,31.21,1027.85,2046.00,3103.11,3026.48,3284.57,350.11,331.03,2.94,0000 0000 0000 0000 000000
2014-03-02 01:30:06,0.40,1.05,0.00,19.97,25.61,28.55,6.17,31.42,1027.85,2046.02,3102.23,3025.82,3283.89,350.20,330.84,2.94,0000 0000 0000 0000 000000
2014-03-02 01:31:06,0.41,1.05,0.00,19.97,25.61,28.53,6.15,30.88,1027.85,2046.00,3101.32,3025.20,3283.17,349.46,330.29,2.95,0000 0000 0000 0000 000000
2014-03-02 01:32:07,0.35,1.05,0.00,19.97,25.62,28.54,6.33,31.29,1027.85,2046.00,3100.41,3024.51,3282.45,350.03,330.56,2.95,0000 0000 0000 0000 000000
2014-03-02 01:33:07,0.39,1.06,0.00,19.98,25.62,28.54,6.36,31.29,1027.84,2046.00,3099.53,3023.95,3281.76,350.81,331.69,2.96,0000 0000 0000 0000 000000
2014-03-02 01:34:07,0.36,1.06,0.00,19.99,25.62,28.56,6.27,31.25,1027.84,2046.00,3098.72,3023.36,3281.15,350.45,331.33,2.97,0000 0000 0000 0000 000000
2014-03-02 01:35:08,0.33,1.06,0.00,19.99,25.62,28.59,6.19,30.83,1027.85,2046.01,3098.07,3022.73,3280.47,349.54,330.47,2.97,0000 0000 0000 0000 000000
2014-03-02 01:36:08,0.38,1.06,0.00,20.00,25.62,28.56,6.15,31.08,1027.85,2046.02,3097.25,3022.15,3279.77,349.44,330.36,2.98,0000 0000 0000 0000 000000
2014-03-02 01:37:08,0.34,1.06,0.00,20.00,25.62,28.54,6.17,30.96,1027.84,2046.02,3096.45,3021.49,3279.13,349.63,330.55,2.98,0000 0000 0000 0000 000000
2014-03-02 01:38:09,0.35,1.07,0.00,20.00,25.62,28.55,6.02,31.17,1027.84,2046.03,3095.63,3020.93,3278.46,349.54,330.46,2.99,0000 0000 0000 0000 000000
2014-03-02 01:39:09,0.38,1.07,0.00,19.99,25.62,28.58,6.25,31.17,1027.85,2046.01,3094.80,3020.32,3277.79,350.08,330.98,3.00,0000 0000 0000 0000 000000
2014-03-02 01:40:09,0.34,1.07,0.00,19.99,25.63,28.57,6.23,30.83,1027.85,2046.00,3094.02,3019.67,3277.13,350.25,331.18,3.00,0000 0000 0000 0000 000000
2014-03-02 01:41:09,0.38,1.07,0.00,20.00,25.64,28.60,6.27,31.21,1027.85,2046.01,3093.23,3019.11,3276.42,349.76,330.68,3.01,0000 0000 0000 0000 000000
2014-03-02 01:42:09,0.31,1.07,0.00,20.01,25.64,28.58,5.97,30.75,1027.85,2046.01,3092.42,3018.45,3275.72,349.35,330.17,3.01,0000 0000 0000 0000 000000
2014-03-02 01:43:10,0.39,1.08,0.00,20.00,25.65,28.60,6.10,30.79,1027.85,2046.01,3091.62,3017.91,3275.16,349.94,330.45,3.02,0000 0000 0000 0000 000000
2014-03-02 01:44:10,0.33,1.08,0.00,20.01,25.65,28.58,6.17,31.08,1027.85,2046.00,3090.89,3017.34,3274.48,350.08,330.87,3.02,0000 0000 0000 0000 000000
2014-03-02 01:45:10,0.34,1.08,0.00,20.02,25.65,28.57,6.16,31.00,1027.86,2046.00,3090.06,3016.68,3273.75,349.88,331.08,3.03,0000 0000 0000 0000 000000
2014-03-02 01:46:10,0.40,1.08,0.00,20.02,25.65,28.57,6.23,30.83,1027.85,2046.00,3089.26,3016.13,3273.10,350.01,330.89,3.04,0000 0000 0000 0000 000000
2014-03-02 01:47:11,0.31,1.08,0.00,20.02,25.65,28.62,6.02,30.79,1027.85,2046.00,3088.46,3015.46,3272.43,349.18,330.10,3.04,0000 0000 0000 0000 000000
2014-03-02 01:48:11,0.38,1.09,0.00,20.02,25.65,28.58,6.32,30.92,1027.85,2046.00,3087.66,3014.85,3271.74,350.89,331.71,3.05,0000 0000 0000 0000 000000
2014-03-02 01:49:11,0.39,1.09,0.00,20.02,25.65,28.59,6.13,30.63,1027.85,2046.00,3086.90,3014.29,3271.13,351.04,331.79,3.05,0000 0000 0000 0000 000000
2014-03-02 01:50:11,0.31,1.09,0.00,20.04,25.65,28.56,6.10,30.79,1027.85,2046.00,3086.15,3013.66,3270.43,350.38,331.22,3.06,0000 0000 0000 0000 000000
2014-03-02 01:51:11,0.37,1.09,0.00,20.04,25.66,28.62,5.97,30.79,1027.85,2046.00,3085.29,3013.11,3269.72,349.34,330.22,3.07,0000 0000 0000 0000 000000
2014-03-02 01:52:12,0.36,1.10,0.00,20.04,25.67,28.60,6.02,30.92,1027.85,2046.00,3084.45,3012.44,3269.15,349.54,330.43,3.07,0000 0000 0000 0000 000000
2014-03-02 01:53:12,0.35,1.10,0.00,20.04,25.67,28.61,5.98,31.25,1027.85,2046.00,3083.62,3011.85,3268.47,349.88,330.55,3.08,0000 0000 0000 0000 000000
2014-03-02 01:54:12,0.39,1.10,0.00,20.05,25.67,28.59,6.23,30.96,1027.85,2046.01,3082.82,3011.30,3267.81,350.68,331.45,3.08,0000 0000 0000 0000 000000
2014-03-02 01:55:12,0.33,1.10,0.00,20.06,25.67,28.57,6.09,30.79,1027.85,2046.00,3082.12,3010.74,3267.22,350.00,330.82,3.09,0000 0000 0000 0000 000000
2014-03-02 01:56:13,0.31,1.10,0.00,20.07,25.67,28.56,6.30,31.00,1027.85,2046.00,3081.40,3010.21,3266.54,350.17,330.98,3.09,0000 0000 0000 0000 000000
2014-03-02 01:57:13,0.33,1.11,0.00,20.07,25.67,28.55,6.23,31.17,1027.85,2046.00,3080.63,3009.56,3265.88,350.52,331.31,3.10,0000 0000 0000 0000 000000
2014-03-02 01:58:13,0.38,1.11,0.00,20.07,25.67,28.59,6.05,30.79,1027.85,2046.00,3079.82,3009.01,3265.26,350.16,330.97,3.11,0000 0000 0000 0000 000000
2014-03-02 01:59:13,0.34,1.11,0.00,20.07,25.67,28.56,6.22,31.00,1027.85,2046.00,3078.96,3008.39,3264.58,350.15,330.96,3.11,0000 0000 0000 0000 000000
2014-03-02 02:00:14,0.39,1.11,0.00,20.08,25.68,28.59,6.10,31.21,1027.85,2046.00,3078.07,3007.77,3263.97,349.66,330.81,3.12,0000 0000 0000 0000 000000
2014-03-02 02:01:14,0.36,1.11,0.00,20.09,25.68,28.61,6.21,31.21,1027.85,2046.00,3077.25,3007.25,3263.37,350.35,331.01,3.12,0000 0000 0000 0000 000000
2014-03-02 02:02:14,0.32,1.12,0.00,20.08,25.69,28.61,6.27,31.21,1027.85,2046.00,3076.48,3006.60,3262.74,349.77,330.59,3.13,0000 0000 0000 0000 000000
2014-03-02 02:03:15,0.36,1.12,0.00,20.07,25.69,28.62,6.11,30.92,1027.85,2046.00,3075.73,3006.10,3262.14,350.22,331.03,3.14,0000 0000 0000 0000 000000
2014-03-02 02:04:15,0.30,1.12,0.00,20.09,25.70,28.65,6.33,31.08,1027.85,2046.00,3075.00,3005.47,3261.45,351.17,331.90,3.14,0000 0000 0000 0000 000000
2014-03-02 02:05:15,0.38,1.12,0.00,20.09,25.70,28.66,6.11,30.71,1027.85,2046.00,3074.21,3004.88,3260.75,349.78,330.58,3.15,0000 0000 0000 0000 000000
2014-03-02 02:06:15,0.35,1.12,0.00,20.08,25.70,28.63,6.22,30.92,1027.85,2046.00,3073.38,3004.32,3260.16,350.60,331.56,3.15,0000 0000 0000 0000 000000
2014-03-02 02:07:15,0.34,1.13,0.00,20.09,25.70,28.58,6.04,30.96,1027.85,2046.00,3072.56,3003.66,3259.48,349.46,330.35,3.16,0000 0000 0000 0000 000000
2014-03-02 02:08:15,0.40,1.13,0.00,20.09,25.70,28.61,6.18,30.88,1027.85,2046.00,3071.71,3003.08,3258.86,349.51,330.28,3.16,0000 0000 0000 0000 000000
2014-03-02 02:09:16,0.35,1.13,0.00,20.09,25.70,28.60,6.10,31.08,1027.85,2046.00,3071.01,3002.45,3258.25,349.95,330.75,3.17,0000 0000 0000 0000 000000
2014-03-02 02:10:16,0.35,1.13,0.00,20.11,25.70,28.62,6.12,30.96,1027.85,2046.00,3070.26,3001.88,3257.55,350.11,331.13,3.18,0000 0000 0000 0000 000000
2014-03-02 02:11:16,0.35,1.14,0.00,20.12,25.70,28.65,6.02,30.88,1027.85,2046.00,3069.49,3001.30,3256.89,350.76,331.49,3.18,0000 0000 0000 0000 000000
2014-03-02 02:12:16,0.35,1.14,0.00,20.13,25.71,28.68,6.09,30.71,1027.85,2046.00,3068.67,3000.62,3256.27,349.96,330.15,3.19,0000 0000 0000 0000 000000
2014-03-02 02:13:17,0.38,1.14,0.00,20.12,25.72,28.63,6.48,31.00,1027.85,2046.00,3067.79,3000.12,3255.58,350.67,331.61,3.19,0000 0000 0000 0000 000000
2014-03-02 02:14:17,0.35,1.14,0.00,20.12,25.72,28.67,6.13,30.96,1027.85,2045.99,3067.04,2999.49,3255.02,350.01,330.97,3.20,0000 0000 0000 0000 000000
2014-03-02 02:15:17,0.35,1.14,0.00,20.12,25.72,28.69,6.20,30.83,1027.85,2045.99,3066.18,2998.94,3254.33,349.89,330.65,3.21,0000 0000 0000 0000 000000
2014-03-02 02:16:17,0.34,1.15,0.00,20.13,25.72,28.70,6.10,30.83,1027.85,2045.97,3065.33,2998.34,3253.61,349.87,330.63,3.21,0000 0000 0000 0000 000000
2014-03-02 02:17:18,0.37,1.15,0.00,20.13,25.72,28.69,5.98,31.00,1027.85,2045.98,3064.49,2997.69,3253.01,349.82,330.57,3.22,0000 0000 0000 0000 000000
2014-03-02 02:18:18,0.38,1.15,0.00,20.13,25.72,28.68,6.25,31.00,1027.85,2045.99,3063.65,2997.06,3252.33,350.47,331.19,3.22,0000 0000 0000 0000 000000
2014-03-02 02:19:18,0.38,1.15,0.00,20.14,25.72,28.64,6.15,31.08,1027.85,2045.98,3062.92,2996.42,3251.62,348.92,329.72,3.23,0000 0000 0000 0000 000000
2014-03-02 02:20:19,0.38,1.15,0.00,20.14,25.72,28.64,6.13,31.08,1027.85,2045.98,3062.11,2995.78,3250.98,349.69,330.44,3.24,0000 0000 0000 0000 000000
2014-03-02 02:21:19,0.34,1.16,0.00,20.14,25.72,28.62,6.17,31.00,1027.85,2045.97,3061.28,2995.22,3250.34,350.68,331.26,3.24,0000 0000 0000 0000 000000
2014-03-02 02:22:19,0.34,1.16,0.00,20.15,25.73,28.65,6.19,30.96,1027.85,2045.97,3060.49,2994.55,3249.64,349.54,330.73,3.25,0000 0000 0000 0000 000000
2014-03-02 02:23:19,0.40,1.16,0.00,20.15,25.73,28.67,5.96,30.71,1027.85,2045.97,3059.68,2994.02,3248.96,348.37,329.20,3.25,0000 0000 0000 0000 000000
2014-03-02 02:24:20,0.32,1.16,0.00,20.15,25.74,28.68,6.23,30.92,1027.85,2045.96,3059.02,2993.40,3248.33,350.24,330.95,3.26,0000 0000 0000 0000 000000
2014-03-02 02:25:20,0.34,1.16,0.00,20.16,25.74,28.70,6.18,30.83,1027.85,2045.96,3058.30,2992.86,3247.66,349.98,330.70,3.26,0000 0000 0000 0000 000000
2014-03-02 02:26:20,0.34,1.17,0.00,20.16,25.75,28.73,6.02,30.92,1027.85,2045.95,3057.52,2992.31,3247.00,350.45,331.34,3.27,0000 0000 0000 0000 000000
2014-03-02 02:27:20,0.34,1.17,0.00,20.17,25.75,28.68,6.11,30.67,1027.85,2045.94,3056.70,2991.69,3246.35,350.18,330.88,3.28,0000 0000 0000 0000 000000
2014-03-02 02:28:21,0.37,1.17,0.00,20.17,25.75,28.67,6.13,30.67,1027.85,2045.96,3055.92,2991.13,3245.64,349.76,330.48,3.28,0000 0000 0000 0000 000000
2014-03-02 02:29:21,0.35,1.17,0.00,20.17,25.75,28.67,6.15,31.21,1027.85,2045.96,3055.11,2990.47,3245.03,349.90,330.61,3.29,0000 0000 0000 0000 000000
2014-03-02 02:30:21,0.39,1.18,0.00,20.18,25.75,28.62,6.25,31.25,1027.85,2045.94,3054.32,2989.85,3244.35,349.72,330.66,3.29,0000 0000 0000 0000 000000
2014-03-02 02:31:22,0.34,1.18,0.00,20.19,25.75,28.67,6.16,31.04,1027.85,2045.95,3053.53,2989.29,3243.68,349.70,330.18,3.30,0000 0000 0000 0000 000000
2014-03-02 02:32:22,0.35,1.18,0.00,20.19,25.75,28.65,6.18,31.00,1027.85,2045.96,3052.73,2988.64,3243.13,350.30,330.68,3.31,0000 0000 0000 0000 000000
2014-03-02 02:33:22,0.37,1.18,0.00,20.19,25.76,28.64,6.23,30.92,1027.85,2045.97,3052.08,2988.18,3242.48,350.58,331.60,3.31,0000 0000 0000 0000 000000
2014-03-02 02:34:22,0.31,1.18,0.00,20.20,25.77,28.64,6.22,31.08,1027.85,2045.94,3051.21,2987.55,3241.82,351.07,331.68,3.32,0000 0000 0000 0000 000000
2014-03-02 02:35:23,0.34,1.19,0.00,20.20,25.77,28.61,6.16,31.29,1027.85,2045.95,3050.39,2987.03,3241.27,348.99,329.72,3.32,0000 0000 0000 0000 000000
2014-03-02 02:36:23,0.36,1.19,0.00,20.21,25.77,28.66,6.02,31.13,1027.85,2045.96,3049.57,2986.40,3240.60,350.42,331.06,3.33,0000 0000 0000 0000 000000
2014-03-02 02:37:23,0.39,1.19,0.00,20.22,25.77,28.64,6.10,31.08,1027.85,2045.98,3048.73,2985.77,3240.02,349.78,330.45,3.33,0000 0000 0000 0000 000000